sat.trackr.live / text

‹ back to catalog

STARLINK-30271

NORAD 57669 · 2023-124G

PAYLOAD ACTIVE UNKNOWN

§ Identity

Operator
Country
US
Launch date
2023-08-22
Launch site
AFWTR
Launch vehicle
Mass (kg)
RCS (m²)

Purposes: comms

External: N2YO · Heavens-Above · Gunter

§ Orbital elements

Epoch: 2026-09-20T20:34:30.561888Z

Period
94.01 min
Inclination
53.1620°
Eccentricity
0.0000627
Mean motion
15.31701182 rev/d
Perigee alt
470.3 km
Apogee alt
471.2 km
Semi-major
6,848.9 km
B*
7.7295e-5
RAAN
18.9219°
Arg perigee
63.6683°
Mean anomaly
296.4383°
Rev number
17,346

§ Raw data

STARLINK-302711 57669U 23124G   26263.85729817  .00002035  00000+0  77295-4 0  99942 57669  53.1620  18.9219 0000627  63.6683 296.4383 15.31701182173464

JSON: /api/v1/satellites/57669 · /tle

For live sub-satellite position, see the globe view (requires WebGL).

§ Visibility from observer

Set your observer location to see the next 7 days of passes ≥ 10°. The values pass through the URL so the page stays shareable.

No JS? Fill the form by hand. The geolocation button needs JavaScript.